Klawock, AK

8:35 AM AKDT on August 24, 2016 (GMT -0800)
Klawock

Weather History for PAKW - October, 2013

Change the Weather History Date:

Tuesday, October 22, 2013

  Actual Average Record
Temperature  
Mean Temperature 52 °F -  
Max Temperature 54 °F 48 °F 57 °F (2002)
Min Temperature 51 °F 38 °F 28 °F (2004)
Degree Days  
Heating Degree Days 12    
Growing Degree Days 2 (Base 50)    
Moisture  
Dew Point 51 °F    
Average Humidity 97    
Maximum Humidity 100    
Minimum Humidity 93    
Precipitation  
Precipitation 0.08 in - - ()
Sea Level Pressure  
Sea Level Pressure 30.09 in    
Wind  
Wind Speed 2 mph (NNE)    
Max Wind Speed 5 mph    
Max Gust Speed -    
Visibility 8 miles    
Events Rain    
Averages and records for this station are not official NWS values.
T = Trace of Precipitation, MM = Missing Value Source: NWS Daily Summary

Daily Weather History Graph

Daily Weather History Graph

Search for Another Location

Airport or City:

Trip Planner

Search our weather history database for the weather conditions in past years. The results will help you decide how hot, cold, wet, or windy it might be!

Date:

Astronomy

Oct. 22, 2013 Rise Set
Actual Time 7:37 AM AKDT 5:34 PM AKDT
Civil Twilight 7:00 AM AKDT 6:12 PM AKDT
Nautical Twilight 6:17 AM AKDT 6:55 PM AKDT
Astronomical Twilight 5:34 AM AKDT 7:37 PM AKDT
Moon 7:51 PM AKDT (10/22) 11:41 AM AKDT (10/22)
Length of Visible Light 11h 12m
Length of Day
9h 56m
Waning Gibbous, 86% of the Moon is Illuminated
Oct 22
Waning Gibbous
Oct 26
Last Quarter
Nov 3
New
Nov 9
First Quarter
Nov 17
Full

Hourly Weather History & Observations

Time (AKDT) Temp. Dew Point Humidity Pressure Visibility Wind Dir Wind Speed Gust Speed Precip Events Conditions
12:53 AM 51.1 °F 50.0 °F 96% 30.16 in 10.0 mi Calm Calm - N/A   Overcast
1:53 AM 51.1 °F 50.0 °F 96% 30.16 in 10.0 mi Calm Calm - N/A   Overcast
2:53 AM 51.1 °F 50.0 °F 96% 30.17 in 10.0 mi Calm Calm - N/A   Overcast
3:53 AM 51.1 °F 50.0 °F 96% 30.16 in 10.0 mi Calm Calm - N/A   Overcast
4:53 AM 51.1 °F 50.0 °F 96% 30.16 in 10.0 mi Calm Calm - N/A   Overcast
5:41 AM 51.8 °F 50.0 °F 94% 30.15 in 10.0 mi NNE 3.5 mph - N/A   Overcast
7:53 AM 51.1 °F 50.0 °F 96% 30.14 in 10.0 mi Calm Calm - N/A   Overcast
8:53 AM 51.1 °F 50.0 °F 96% 30.14 in 10.0 mi North 3.5 mph - N/A   Overcast
9:53 AM 52.0 °F 50.0 °F 93% 30.14 in 10.0 mi Calm Calm - N/A   Overcast
10:53 AM 52.0 °F 51.1 °F 97% 30.13 in 10.0 mi NE 3.5 mph - 0.00 in   Overcast
11:53 AM 53.1 °F 51.1 °F 93% 30.14 in 8.0 mi ENE 3.5 mph - 0.00 in Rain Light Rain
1:25 PM 53.6 °F 51.8 °F 94% 30.12 in 4.0 mi NNE 3.5 mph - 0.00 in Rain Light Rain
1:51 PM 53.6 °F 53.6 °F 100% 30.11 in 2.5 mi NNE 4.6 mph - 0.02 in Rain Light Rain
1:53 PM 54.0 °F 53.1 °F 97% 30.11 in 3.0 mi NNE 3.5 mph - 0.02 in Rain Light Rain
2:05 PM 53.6 °F 53.6 °F 100% 30.10 in 3.0 mi NNE 3.5 mph - 0.00 in Rain Light Rain
2:13 PM 53.6 °F 53.6 °F 100% 30.10 in 4.0 mi NNE 3.5 mph - 0.01 in Rain Light Rain
2:53 PM 53.1 °F 53.1 °F 100% 30.10 in 4.0 mi NNE 3.5 mph - 0.02 in Rain Light Rain
3:04 PM 53.6 °F 51.8 °F 94% 30.10 in 4.0 mi Calm Calm - 0.00 in Rain Light Rain
3:53 PM 53.1 °F 52.0 °F 96% 30.09 in 4.0 mi NE 3.5 mph - 0.02 in Rain Light Rain
4:23 PM 53.6 °F 51.8 °F 94% 30.08 in 10.0 mi NNE 4.6 mph - 0.00 in   Overcast
4:53 PM 53.1 °F 52.0 °F 96% 30.07 in 10.0 mi NNE 3.5 mph - 0.01 in Rain Light Rain
5:04 PM 53.6 °F 51.8 °F 94% 30.07 in 10.0 mi Calm Calm - 0.00 in Rain Light Rain
5:53 PM 52.0 °F 51.1 °F 97% 30.05 in 5.0 mi Calm Calm - 0.01 in Rain Light Rain
6:51 PM 51.8 °F 51.8 °F 100% 30.05 in 10.0 mi Calm Calm - 0.00 in   Overcast
7:07 PM 51.8 °F 51.8 °F 100% 30.05 in 10.0 mi Calm Calm - 0.00 in Rain Light Rain
7:40 PM 51.8 °F 51.8 °F 100% 30.04 in 5.0 mi Calm Calm - 0.02 in Rain Light Rain
8:35 PM 51.8 °F 51.8 °F 100% 30.03 in 10.0 mi NE 4.6 mph - 0.00 in   Overcast
8:53 PM 52.0 °F 51.1 °F 97% 30.03 in 10.0 mi NNE 4.6 mph - 0.00 in   Overcast
9:04 PM 51.8 °F 51.8 °F 100% 30.03 in 10.0 mi Calm Calm - N/A   Overcast
9:53 PM 52.0 °F 51.1 °F 97% 30.02 in 10.0 mi Calm Calm - N/A   Overcast
10:53 PM 52.0 °F 51.1 °F 97% 30.02 in 10.0 mi NNE 3.5 mph - N/A   Overcast
11:53 PM 51.1 °F 51.1 °F 100% 30.01 in 10.0 mi NNE 4.6 mph - N/A   Overcast